Location: Rochester
(43.1610°N, 77.6109°W)
Time: 10:22:22
(UTC-04:00)

OTV 5 (USA 277) - Visible Passes

Search period start: 19 April 2019 00:00
Search period end: 29 April 2019 00:00
Orbit: 310 x 325 km, 54.5° (Epoch: 16 April)

Date Brightness Start Highest point End Pass type
(mag) Time Alt. Az. Time Alt. Az. Time Alt. Az.
19 Apr ? 04:07:15 10° N 04:08:27 12° NNE 04:09:40 10° NE visible
19 Apr ? 05:40:36 10° NW 05:43:16 62° NE 05:45:54 10° ESE visible
20 Apr ? 04:21:27 10° NNW 04:23:30 19° NNE 04:25:33 10° ENE visible
21 Apr ? 04:36:14 13° NW 04:38:26 38° NNE 04:40:58 10° ESE visible
22 Apr ? 04:51:41 22° WNW 04:53:14 75° SW 04:55:53 10° SE visible
22 Apr ? 21:11:38 10° S 21:12:32 16° S 21:12:32 16° S visible
23 Apr ? 05:07:59 24° SW 05:07:59 24° SW 05:10:07 10° S visible
23 Apr ? 21:25:46 10° SW 21:28:28 64° SE 21:29:39 28° ENE visible
24 Apr ? 21:40:35 10° WSW 21:43:13 44° NW 21:45:51 10° NE visible
25 Apr ? 21:55:56 10° W 21:58:07 21° NNW 22:00:20 10° NNE visible
26 Apr ? 20:35:42 10° WSW 20:38:25 73° NW 20:41:08 10° NE visible
26 Apr ? 22:11:44 10° NW 22:13:09 13° NNW 22:14:35 10° NNE visible
27 Apr ? 20:50:48 10° W 20:53:15 29° NNW 20:55:43 10° NNE visible
28 Apr ? 21:06:22 10° WNW 21:08:13 16° NNW 21:10:05 10° NNE visible
